KIPJ

Details ICAO KIPJ
Name LINCOLNTON LINCOLN CO RGNL
Region United States
Timezone America/New_York (UTC-4.0)
Plans Departing 13
Arriving 5
Stats Elevation 875 ft / 267 m (AMSL)
Location 35.483330° -81.161191°
Runways 1
Magnetic Variation 7.615° W
Sunrise 2018-05-21 10:17:16 UTC / 2018-05-21 06:17:16 Local
Sunset 2018-05-22 00:28:05 UTC / 2018-05-21 20:28:05 Local
Advertisement - Login to hide

Runways

ID Width Length Bearing (true) Bearing (mag) Surface Threshold Offset Overrun Length
05 100 ft / 30 m 5,529 ft / 1,685 m 47.30° 54.92° Asphalt 300 ft / 91 m 200 ft / 61 m
23 100 ft / 30 m 5,529 ft / 1,685 m 227.31° 234.93° Asphalt 600 ft / 183 m 200 ft / 61 m

Approach Navaids

Runway Type Ident Frequency Range Bearing (true) Bearing (mag) Slope Elevation
23 Localiser IIPJ 111.15 MHz 18 nm / 33 km 227.50° 235.12° - 935 ft / 285 m (AMSL)

Map

Weather


0- 5 10 15 20 25 30 35+ Temperature / ° C

Clouds and Precipitation
Forecast for 2018-05-21 12:00 UTC. Updated 35 minutes ago

Ground ~20,000 ft ~40,000 ft Winds

METAR

KIPJ 211135Z AUTO 00000KT 3SM BR SCT002 18/18 A3015 RMK AO2 T01760176

TAF

Not found

Frequencies

Recorded 119.67 MHz AWOS 3
Clearance 124.90 MHz CLNC DEL
Unicom 123.05 MHz CTAF/UNICOM
Approach 134.75 MHz CHARLOTTE APP/DEP
Warning: Do not use this data for real-world aviation or navigation. No guarantee of current accuracy is given.